Погода в Татарске

Россия / Смоленская область     54°15′09″N   31°33′45″E
темп.,
°C
ветер,
м/с
пор.,
м/с
влажн.,
%
обл.,
%
осадки,
мм/ч
давл.,
гПа
погр.,
м
13 апреля, вт
вт1300:00+9в3590100 0.1 1022135
03:00+9ю1193100 0.2 102110
06:00+9в229393 0.0 102111
09:00+12вюв2383100 0.0 1020267
12:00+15ююв4769100 0.0 1020853
15:00+15ю5873100 0.6 1019915
18:00+12ююв4882100 0.0 1019563
21:00+11ююв4888100 0.1 1019327
14 апреля, ср
ср1400:00+10ююв3690100 0.0 1018186
03:00+9ююв249188 0.0 1017120
06:00+8ююв379390 0.0 1017214
09:00+10ююв358698 0.0 1017261
12:00+12ююв467598 0.0 1017571
15:00+15ююв355498 0.0 10151537
18:00+14ю2362100 0.2 1014708
21:00+12вюв1178100 0.6 101514
15 апреля, чт
чт1500:00+10св1193100 1.0 101454
03:00+10всв1295100 1.8 101488
06:00+9всв2397100 0.6 1014108
09:00+11юв128591 1.2 1014260
12:00+14юв3366100 1.2 1014936
15:00+15вюв556099 1.7 10131303
18:00+12в5980100 0.4 1014703
21:00+10всв41087100 2.0 1014557
16 апреля, пт
пт1600:00+10всв51191100 1.1 1014470
03:00+9всв47906 1.6 1014265
06:00+7всв510945 0.0 1015307
09:00+10всв798471 0.1 1016599
12:00+11всв5984100 0.9 1016840
15:00+10всв61185100 1.5 1017745
18:00+10всв61087100 0.6 1018580
21:00+10св6128998 1.4 1019547
17 апреля, сб
сб1700:00+9всв7148899 0.3 1020628
03:00+9всв6128998 0.6 1021518
06:00+7св7128986 0.1 1022472
09:00+8всв7128083 0.1 1024622
12:00+12всв8106531 0.0 10241000
15:00+13всв810505 0.0 10251386
18:00+12всв711485 0.0 10261375
21:00+8всв513590 0.0 1028383